Flag for Canada Weather past 2 weeks in Stonewall, Manitoba, Canada

Now
-4 °F

Sunny.


Feels Like: -20 °F
Forecast: N/A
Wind: 9 mph from Southwest

Location: Winnipeg Int. Airportman.

Current Time: Feb 1, 2015 at 3:52:26 PM

Latest Report: Feb 1, 2015 at 3:00 PM


Visibility: 15 mi

Pressure: 30.55 "Hg

Humidity: 54%

Dew point: -17 °F

Location of StonewallLocation

Historic Weather in Stonewall — Graph

°F

Stonewall temperature yesterday

Maximum temperature yesterday: 7 °F (at 12:00 AM)
Minimum temperature yesterday: -17 °F (at 11:00 PM)
Average temperature yesterday: -8 °F

Past Weeks' High & Low Weather Summary

 TemperatureHumidityPressure
High37 °F (Jan 22, 7:00 PM)100% (Jan 27, 11:00 AM)30.74 "Hg (Jan 27, 11:00 AM)
Low-20 °F (Feb 1, 6:00 AM)52% (Jan 31, 9:00 PM)29.50 "Hg (Jan 17, 2:00 PM)
Average17 °F79%30.09 "Hg
* Reported Jan 17 2:00 PM — Feb 1 2:00 PM, Stonewall, Weather by CustomWeather, © 2014

Note: Actual official high and low records may vary slightly from our data, if they occured in-between our weather recording intervals... More about our weather records

Advertising

Stonewall weather history for previous 24 hours

 ConditionsComfort  
Time TempWeatherWind HumidityBarometerVisibility
2:00 PM
Feb 1
-6 °FSunny.9 mph54%30.58 "Hg15 mi
1:00 PM-6 °FSunny.5 mph54%30.61 "Hg15 mi
12:00 PM-8 °FSunny.7 mph58%30.66 "Hg15 mi
11:00 AM-11 °FSunny.6 mph63%30.69 "Hg15 mi
10:00 AM-15 °FSunny.6 mph63%30.69 "Hg15 mi
9:00 AM-18 °FPassing clouds.6 mph69%30.70 "Hg15 mi
8:00 AM-20 °FPassing clouds.5 mph68%30.71 "Hg15 mi
7:00 AM-20 °FClear.2 mph75%30.71 "Hg15 mi
6:00 AM-20 °FClear.3 mph68%30.72 "Hg15 mi
5:00 AM-18 °FClear.5 mph69%30.72 "Hg15 mi
4:00 AM-17 °FPassing clouds.6 mph63%30.73 "Hg15 mi
3:00 AM-17 °FPassing clouds.6 mph69%30.73 "Hg15 mi
2:00 AM-17 °FPassing clouds.7 mph69%30.74 "Hg15 mi
1:00 AM-17 °FPassing clouds.7 mph69%30.73 "Hg15 mi
12:00 AM-17 °FPassing clouds.8 mph69%30.73 "Hg15 mi
11:00 PM
Jan 31
-17 °FPassing clouds.7 mph63%30.72 "Hg15 mi
10:00 PM-15 °FPassing clouds.7 mph63%30.71 "Hg15 mi
9:00 PM-13 °FClear.9 mph52%30.70 "Hg15 mi
8:00 PM-13 °FClear.9 mph57%30.70 "Hg15 mi
7:00 PM-13 °FClear.7 mph63%30.70 "Hg15 mi
6:00 PM-11 °FPassing clouds.14 mph58%30.69 "Hg15 mi
5:00 PM-11 °FPassing clouds.15 mph58%30.67 "Hg15 mi
4:00 PM-9 °FPassing clouds.18 mph53%30.66 "Hg15 mi
3:00 PM-9 °FScattered clouds.15 mph58%30.66 "Hg15 mi
Weather by CustomWeather, © 2014

See weather overviewHow to use our weather pages